STARLINK-36519, 67449

Orbit data source: Space-Track

STARLINK-36519, 67449 is a payload satellite owned by SpaceX/Seattle (US) in LEO that was launched on Wed, 14 Jan 2026 UTC via an FALCON 9 launch vehicle from the Air Force Eastern Test Range (AFETR). Payload-class satellites include a variety of spacecraft equipped with specific instruments for various scientific and technological missions. These include communications satellites like Starlink; space stations such as the ISS; scientific satellites like the Hubble; Earth observation satellites from companies like Planet Labs, Umbra, and HawkEye 360; GPS; miniature CubeSats for education and research; and military/defense satellites.

Loading next visibility...
Identifier
67449, 2026-008E
Orbit
LEO
Country
Flag of USUS
Related business
Manufacturer
SpaceX/Seattle
Mission
Operational spacecraft
Bus & Motor
STARLINK V2MO, Unknown motor
Mass
575 kg wet, ~530 kg dry
Launch date (UTC)
2026-01-14 (2 months ago)
Launch vehicle
FALCON 9
Launch site
Air Force Eastern Test Range (AFETR)
Object type
Payload
Rocket body
Debris
Shape & HBR
Unknown shape, 17.7 m
Radar Cross Section
RCS unknown

Expand to show TLE details & history
Last TLE update: 8 hours ago

TLE from 8 hours ago
0 STARLINK-36519
1 67449U 26008E   26062.89027118  .00034649  00000-0  12616-2 0  9992
2 67449  43.0012 238.1180 0002915 290.0696  69.9842 15.27607067  8685
Epoch: 2026-03-03T21:21Z
TLE epoch observation values (Epoch: 2026-03-03T21:21:59.429Z)
Latitude
-0.00002°
Longitude
115.95751°
Altitude
482.06 km
Speed
7.627 km/s
True Right ascension
15h 52m 28s
True Declination
0° 00' 00"
Sunlit
Object was in daylight at epoch
Visualization orbit readout
Latitude
Unknown
Longitude
Unknown
Altitude
Unknown
Speed
Unknown
Apparent Right ascension
Unknown
Apparent Declination
Unknown
Sunlit
N/A
Visualization observer readout
Local Sidereal Time
08:43:58
Azimuth
Unknown
Elevation
Unknown
Doppler factor
Unknown
Orbital elements
Apogee altitude
486.914 km
Perigee altitude
482.912 km
Semi-major axis
6,863.05 km
Eccentricity
0.00029
Inclination
43.0012°
RAAN
238.118°
Arg. of periapsis
290.0696°
True anomaly
70.01559°
Mean anomaly
69.9842°
Eccentric anomaly
69.99989°
Mean motion
3.8174 °/min
Orbital period
94.31 mins
BSTAR
0.0012616
Loading maneuver chart data...
Computing Atmospheric mass density...
Loading historical data...
Loading historical data...
Loading historical data...
Loading historical data...
Loading historical data...
Loading historical data...
Loading historical data...

Documentation

Showing up to 5 results
|